Location: Appertshausen
(48.5128°N, 10.9924°E)
Time: 00:24:34
(UTC+00:00)

Daily predictions for brighter satellites

Satellite Brightness Start Highest point End
(mag) Time Altitude Azimuth Time Altitude Azimuth Time Altitude Azimuth
CENTAUR R/B 4.4 02:05:13 26° N 02:05:13 26° N 02:11:03 10° NE
ACS3 Solar Sail 3.4 02:00:21 10° NNE 02:03:45 29° NE 02:03:45 29° NE
USA 234 4.2 02:07:22 10° ESE 02:11:31 41° E 02:11:31 41° E
Cosmos 2360 Rocket 4.1 02:17:23 25° NE 02:17:23 25° NE 02:19:45 10° NE
Cosmos 2322 Rocket 4.1 02:17:42 24° NE 02:17:42 24° NE 02:19:57 10° NNE
SL-16 R/B 4.3 02:24:11 20° NNE 02:24:11 20° NNE 02:25:55 10° NNE
Cosmos 1943 Rocket 4.4 02:24:44 18° NNE 02:26:05 19° NE 02:30:00 10° E
ADEOS Rocket 3.5 02:33:15 10° NNE 02:38:46 63° NE 02:38:46 63° NE
CZ-2C R/B 4.1 02:37:35 10° NNE 02:42:00 30° E 02:42:20 30° ESE
Cosmos 2219 Rocket 2.9 02:55:06 51° ENE 02:55:06 51° ENE 02:59:30 10° NNE
BREEZE-M DEB (TANK) 4.4 02:53:28 71° WSW 02:54:23 78° SSW 03:19:46 10° SE
USA 59 Rocket 2.7 03:05:03 11° ENE 03:05:03 11° ENE 03:05:16 10° ENE
COSMOS 2428 4.4 02:59:23 12° SSE 03:03:49 30° ESE 03:08:41 10° NE
Cosmos 1727 Rocket 4.4 03:10:31 10° S 03:16:35 61° E 03:22:42 10° NNE
USA 267 3.1 03:12:58 10° NE 03:19:32 87° NNW 03:20:18 72° WSW
Cosmos 2150 Rocket 4.5 03:23:19 52° NNE 03:23:19 52° NNE 03:27:18 10° NNE
Cosmos 2228 Rocket 3.9 03:26:01 47° NE 03:26:01 47° NE 03:29:28 10° NNE
Cosmos 1980 Rocket 4.5 03:27:56 11° NNW 03:27:56 11° NNW 03:28:33 10° N
Cosmos 1269 Rocket 4.2 03:29:01 42° N 03:30:43 68° ENE 03:35:59 10° SSE
H-2A R/B 3.9 03:26:44 10° N 03:28:05 18° N 03:28:05 18° N
USA 238 DEB 4.4 03:33:04 35° NNW 03:33:10 35° NNW 03:39:32 10° NE
USA 238 4.4 03:33:10 36° NNW 03:33:16 36° NNW 03:39:39 10° NE
Cosmos 2278 Rocket 3.1 03:29:49 19° NNW 03:33:38 46° NE 03:39:03 10° SE
Cosmos 2173 Rocket 4.1 03:31:33 10° N 03:37:39 72° E 03:43:43 10° SSE
Cosmos 2333 Rocket 3.3 03:39:31 29° NNW 03:39:31 29° NNW 03:43:14 10° NNE
Cosmos 2237 Rocket 4.4 03:35:41 10° SSE 03:40:09 25° ESE 03:44:38 10° NE
ADEOS II 4.3 03:39:20 10° N 03:39:55 12° NNW 03:39:55 12° NNW
COSMOS 2455 3.4 03:45:06 40° NW 03:45:06 40° NW 03:50:28 10° NNE
Lacrosse 5 rocket 3.1 03:46:58 19° NNE 03:46:58 19° NNE 03:48:22 10° NE
Cosmos 1153 Rocket 4.4 03:40:03 10° NNW 03:46:09 64° W 03:52:17 10° S
Cosmos 2298 Rocket 4.2 03:46:57 53° NW 03:46:57 53° NW 03:51:37 10° NNE
Cosmos 1939 Rocket 3.3 03:43:29 10° NNE 03:47:17 58° E 03:48:49 33° SSE
ACS3 Solar Sail 2.3 03:43:20 10° N 03:47:53 39° NW 03:47:53 39° NW
Meteor 1-24 Rocket 4.5 03:44:17 10° S 03:49:53 53° E 03:55:19 10° NNE
BlueWalker 3 2.6 03:53:51 46° SE 03:53:51 46° SE 03:56:31 10° SE
USA 234 3.4 03:50:39 10° SSE 03:57:01 52° SW 03:58:52 41° W
CENTAUR R/B 4.3 03:52:18 16° NNW 03:57:29 33° NNE 04:05:18 10° E
Cosmos 2123 Rocket 4.3 03:51:57 10° S 03:58:05 67° E 04:04:14 10° NNE
USA 276 4.4 04:00:15 16° SE 04:00:15 16° SE 04:01:00 10° SE
Cosmos 2360 Rocket 3.1 03:59:09 31° NW 03:59:09 31° NW 04:03:32 10° NNE
Cosmos 2322 Rocket 3.3 03:59:31 28° NNW 03:59:31 28° NNW 04:03:41 10° NNE
Helios 1A Rocket 3.7 03:56:59 10° SE 04:00:10 40° ENE 04:02:41 15° N
Meteor 2-5 Rocket 4.4 03:54:55 10° S 04:00:43 59° E 04:06:28 10° NNE
Gbstr 26 Del rocket 3.7 03:59:16 40° SW 04:00:57 65° SSE 04:06:47 10° ENE
SL-16 R/B 3.8 04:06:02 18° NNW 04:06:02 18° NNW 04:09:14 10° N
Cosmos 44 Rocket 3.3 04:05:02 46° WNW 04:06:29 69° SW 04:11:36 10° SSE
Cosmos 2016 Rocket 4.2 04:02:32 10° N 04:08:57 75° E 04:15:18 10° SSE
Cosmos 1943 Rocket 2.1 04:06:17 17° NNW 04:10:41 83° ENE 04:16:12 10° SSE
Meteor 2-14 Rocket 4.4 04:05:55 10° SSW 04:11:55 60° WNW 04:17:58 10° N
Okean 1-7 3.7 04:13:10 35° NNW 04:13:10 35° NNW 04:16:03 10° N
H-2A R/B 3.9 04:08:34 10° N 04:11:15 38° NNW 04:11:15 38° NNW
ARGOS 3.5 04:09:39 10° N 04:14:45 43° WNW 04:16:17 35° WSW
NOSS 2-1 (C) 2.6 04:14:58 82° W 04:15:03 84° NW 04:18:06 10° NE
PAYLOAD A 4.2 04:10:22 10° N 04:15:39 55° WNW 04:20:29 12° SW
Meteor 2-21 Rocket 4.4 04:09:44 10° S 04:15:52 85° E 04:21:59 10° N
Cosmos 1908 Rocket 3.4 04:12:07 10° NNW 04:16:34 79° W 04:20:58 10° S
Cosmos 1140 Rocket 3.4 04:15:56 26° NW 04:18:39 58° WSW 04:23:38 10° S
NOSS 2-1 (D) 2.6 04:19:05 71° NW 04:19:06 71° NW 04:22:07 10° NE
CZ-2C R/B 2.8 04:15:27 10° N 04:20:07 41° WNW 04:21:32 33° WSW
Timation 2 Rocket 4.0 04:14:48 14° NW 04:20:39 70° WSW 04:27:00 10° SSE
Cosmos 1300 Rocket 3.8 04:17:00 10° N 04:21:21 68° E 04:25:38 10° SSE
ADEOS Rocket 4.1 04:19:35 10° N 04:24:49 27° WNW 04:25:40 26° WNW
Cosmos 2061 Rocket 4.3 04:22:45 10° N 04:28:59 71° E 04:35:09 10° SSE
NOSS 3-1 (C) 3.0 04:27:24 27° WSW 04:30:04 64° NW 04:35:54 10° NE
Iridium 4 Rocket 2.9 04:27:25 10° N 04:31:49 82° W 04:35:58 10° S
Cosmos 2100 Rocket 4.2 04:26:23 10° NNW 04:32:12 45° W 04:37:59 10° SSW
SJ 16-02 3.1 04:28:53 10° N 04:32:45 31° ENE 04:36:34 10° ESE
Orbus 7S? 4.3 04:29:38 10° SW 04:35:47 51° SE 04:38:58 10° ENE
Cosmos 2219 Rocket 3.1 04:36:50 25° WNW 04:38:16 27° NW 04:43:06 10° NNE
IRS-1D 3.3 04:35:18 10° NNE 04:40:18 76° WNW 04:45:12 10° SSW
NOSS 0 Rocket 3.9 04:38:07 10° SSW 04:44:15 82° WNW 04:50:27 10° NNE
Cosmos 1869 4.1 04:44:22 10° N 04:47:44 45° ENE 04:51:07 10° SSE
COSMOS 2428 2.9 04:42:15 10° SW 04:47:47 52° NW 04:53:21 10° NNE
USA 59 Rocket 0.0 04:50:47 28° WNW 04:51:28 31° NW 04:54:09 10° NNE
Cosmos 371 Rocket 4.4 04:46:51 10° NNW 04:51:31 44° ENE 04:56:08 10° SE
Cosmos 2322 4.1 04:50:02 10° WSW 04:55:21 41° NW 05:00:43 10° NNE
FengYun 1-2 T 4.4 04:51:25 10° N 04:56:43 47° WNW 05:02:02 10° SW
Cosmos 1954 Rocket 4.4 04:51:35 10° NNW 04:56:47 65° ENE 05:01:54 10° SSE
COSMO-SKYMED 1 2.5 04:54:20 10° S 04:58:23 57° W 05:02:28 10° NNW
SKYMED 2 4.0 04:55:38 10° S 04:59:45 41° W 05:03:53 10° NNW
Cosmos 407 Rocket 3.7 04:55:39 10° NNW 05:00:34 48° WSW 05:05:26 10° S
USA 267 3.7 04:56:02 10° ENE 05:02:14 48° NNW 05:07:39 14° W
Cosmos 1484 Rocket 2.8 04:59:21 10° NNE 05:02:55 73° E 05:06:27 10° S
Cosmos 1725 Rocket 4.3 04:57:55 10° NNW 05:03:51 43° W 05:09:44 10° SSW
Cosmos 1980 3.6 05:01:48 10° SW 05:07:27 74° WNW 05:13:09 10° NNE
Cosmos 1656 Rocket 4.1 05:08:10 10° NNW 05:13:51 69° ENE 05:19:30 10° SE
NOSS 3-1 (A) 3.0 05:09:27 10° SW 05:14:12 70° NW 05:20:03 10° NE
Cosmos 2233 Rocket 4.2 05:09:02 10° NNW 05:15:08 51° W 05:21:09 10° SSW
Cosmos 1400 Rocket 4.3 05:11:42 10° N 05:15:12 35° ENE 05:18:37 10° SE
Cosmos 2278 Rocket 2.9 05:12:32 10° NW 05:17:34 34° WSW 05:22:35 10° SSW
Cosmos 1703 Rocket 4.5 05:14:15 10° SW 05:17:56 26° WNW 05:21:39 10° NNW
Cosmos 2251 Rocket 3.6 05:14:11 10° NNW 05:19:28 61° WSW 05:24:43 10° S
Cosmos 304 Rocket 3.9 05:15:05 10° NNW 05:19:53 79° ENE 05:24:38 10° SSE
Cosmos 1939 Rocket 4.4 05:18:36 10° NNW 05:20:49 15° WNW 05:23:03 10° W
NOSS 2-1 (E) 4.0 05:18:52 12° W 05:21:21 24° NW 05:23:56 10° NNE
CZ-3 R/B 4.0 05:19:15 10° SW 05:22:32 12° SSW 05:25:01 10° SSE
Lacrosse 5 rocket 2.7 05:20:41 10° NW 05:23:13 19° N 05:25:44 10° NE
Cosmos 2237 Rocket 2.2 05:18:11 10° SW 05:23:46 61° WNW 05:29:24 10° NNE
Cosmos 2333 Rocket 4.2 05:22:54 10° NW 05:24:16 11° NNW 05:25:39 10° N
IGS 5A 3.4 05:21:52 10° NNE 05:25:54 85° ESE 05:29:55 10° SSW
Cosmos 2292 Rocket 4.5 05:24:31 10° SW 05:28:28 33° WNW 05:33:24 10° N
BlueWalker 3 3.9 05:28:03 10° W 05:29:56 14° SW 05:31:48 10° SSW
Cosmos 2151 Rocket 4.1 05:27:37 10° N 05:32:07 64° ENE 05:36:33 10° SSE
NOSS 7 (E) 4.4 05:29:53 10° NW 05:33:00 70° NE 05:36:19 10° SE
Helios 1A Rocket 4.2 05:31:07 10° SW 05:33:05 15° W 05:35:04 10° WNW
Cosmos 2242 Rocket 3.5 05:29:52 10° SSW 05:34:13 70° WNW 05:38:38 10° N
ATLAS 3B R/B 4.4 05:27:36 10° S 05:34:34 44° ESE 05:41:53 10° NE
Cosmos 2369 Rocket 2.9 05:30:05 10° NNW 05:35:41 56° ENE 05:41:16 10° SE
Cosmos 1624 Rocket 4.0 05:34:48 10° SSW 05:39:59 88° WNW 05:45:12 10° NNE
Cosmos 968 Rocket 4.1 05:36:57 10° NNW 05:42:09 60° ENE 05:47:19 10° SE
